Theta_e
315 314 310 308 308 310 314 317 317 316 316 316 314 314 317 316 314 315 314 317 320 323 331 330 324 326 328 324 321 322 324 325 324 321 319 318 315 313 315 316 319 321 320 321 324 325 324 321 320 322 321 320 320 321 323 324 325 328 323 319 326 337 338 331 332 341 342 334 332 330 328 331 332 332 338 342 346 346 337 334 339 338 337 341 338 335 342
314 313 309 308 308 309 313 316 316 314 313 313 313 317 319 317 317 319 317 316 318 322 329 331 328 332 332 323 321 322 321 321 321 320 321 320 315 313 315 315 315 316 318 322 323 321 320 318 320 322 321 321 323 324 327 326 326 326 324 322 321 323 329 332 338 344 340 333 337 337 333 335 332 331 340 345 348 350 341 332 336 338 338 341 337 336 343
313 311 309 308 308 309 312 315 316 315 313 313 314 315 318 317 317 322 323 319 318 322 327 329 331 333 329 324 326 325 321 322 321 320 322 322 317 314 314 314 316 317 320 324 324 322 321 320 322 322 322 325 326 325 326 328 332 337 338 338 331 326 332 342 344 338 330 331 340 339 335 338 338 339 345 345 346 351 343 331 330 334 337 338 337 339 346
312 311 309 308 307 307 311 314 317 316 314 315 314 313 317 318 316 326 334 330 326 326 326 326 330 331 328 331 333 325 321 324 322 317 317 317 315 314 314 315 317 319 323 326 325 323 322 323 325 326 327 328 326 324 326 329 339 350 348 345 347 342 338 346 352 340 329 336 346 342 337 342 345 346 349 347 346 349 345 333 330 334 336 339 342 347 353
312 310 309 309 307 307 309 314 317 317 316 315 315 314 317 319 320 328 334 332 332 334 329 328 334 332 328 332 331 323 324 327 322 318 315 314 316 315 314 315 316 318 323 324 321 323 327 329 328 327 328 331 329 325 324 325 338 350 343 337 348 349 335 336 346 340 332 338 345 342 343 347 346 344 349 349 346 349 349 344 341 338 329 330 344 353 355
311 310 309 309 308 307 308 313 316 317 316 315 316 319 320 319 321 324 325 326 333 334 328 329 333 331 330 334 330 324 327 329 325 323 319 315 316 315 315 317 317 318 324 322 321 325 327 327 327 327 327 330 331 328 323 322 333 340 332 333 348 349 333 328 334 336 337 338 338 341 347 348 343 341 347 351 349 349 352 351 351 346 332 331 347 355 357
311 310 309 309 309 307 308 312 314 316 317 315 316 321 324 325 328 328 325 326 332 332 329 330 333 332 334 336 331 326 329 329 325 323 320 318 318 315 316 321 319 319 327 330 327 326 323 323 327 329 328 326 327 327 323 322 330 332 325 329 339 338 331 332 335 334 335 336 337 341 346 347 343 339 342 349 350 348 350 349 351 351 347 348 354 357 358
311 310 309 309 308 307 308 311 312 315 317 315 315 319 323 327 331 332 330 332 335 335 333 333 333 334 335 332 329 328 329 328 326 322 319 319 319 316 316 323 323 322 331 336 327 327 333 332 330 329 327 325 327 329 325 323 330 332 326 325 329 326 327 336 341 332 327 335 338 339 343 346 346 344 344 349 352 351 350 348 349 353 354 355 356 357 359
311 310 310 309 308 307 308 309 311 314 315 314 315 316 316 317 319 322 328 335 337 335 335 334 331 332 337 335 332 331 330 327 326 326 324 320 320 321 320 322 323 321 326 328 319 324 338 338 333 334 329 327 331 329 323 324 328 331 327 326 329 330 327 336 343 332 324 332 338 342 345 340 339 345 348 350 355 354 350 347 347 350 353 355 355 355 357
311 310 309 309 308 307 308 309 311 313 314 314 315 316 314 315 317 320 325 331 334 333 335 334 328 328 334 334 330 331 330 327 325 327 330 324 317 319 319 321 325 322 321 324 318 324 335 332 328 330 328 328 333 330 327 327 327 330 330 324 328 338 333 331 338 331 323 330 340 346 345 336 335 342 342 345 353 352 349 349 347 345 348 354 354 351 351
310 309 309 309 308 307 309 310 311 313 314 313 315 315 314 314 318 323 325 329 335 334 332 333 331 330 331 327 325 327 328 327 326 326 331 330 321 316 317 320 326 327 326 326 322 323 327 322 320 322 325 328 330 328 330 330 326 332 335 325 329 345 344 338 338 329 322 335 345 342 338 337 339 340 339 345 351 350 348 349 346 344 345 347 347 345 345
310 309 309 309 309 308 309 311 312 312 312 313 313 314 314 313 314 322 326 329 335 334 332 333 332 329 327 324 323 325 325 326 326 323 325 328 324 316 316 320 324 328 327 320 317 319 318 318 322 325 326 330 329 325 329 332 328 329 330 326 337 350 349 344 342 330 326 342 346 335 335 342 340 337 340 344 346 346 347 345 343 343 343 343 343 342 341
310 309 309 308 309 309 309 311 312 311 312 314 313 313 315 313 313 322 328 329 334 336 334 333 330 326 324 325 323 323 324 324 325 325 324 326 325 318 317 323 324 323 320 317 322 325 319 322 330 326 325 337 335 325 327 334 333 328 325 328 341 349 346 345 341 329 325 336 336 329 333 340 336 335 339 341 341 342 343 345 346 345 343 344 345 342 341
309 309 309 308 308 309 310 311 311 312 313 315 313 313 314 313 314 320 325 326 332 335 329 328 330 327 324 325 323 322 326 326 326 328 326 324 325 320 318 322 322 318 317 321 329 330 324 331 335 325 326 336 329 319 323 328 328 329 330 333 338 340 342 344 337 327 329 338 338 336 336 336 336 338 339 341 345 344 344 348 352 348 345 345 344 342 343
309 308 308 308 308 308 309 311 312 313 315 314 312 313 313 313 313 315 319 324 331 333 328 326 329 327 324 324 322 322 330 332 329 329 329 328 324 317 316 318 314 314 321 330 337 335 328 330 329 322 323 327 320 319 327 326 324 327 331 334 335 331 333 336 329 326 335 345 344 341 341 342 343 343 339 339 343 343 341 344 348 348 345 343 341 342 344
309 308 308 308 308 308 308 310 312 314 315 313 313 312 312 313 312 312 315 322 327 329 327 325 323 323 324 324 322 323 328 328 326 329 336 339 329 317 316 314 310 317 333 343 345 343 334 330 330 329 329 327 320 320 324 325 324 325 328 336 338 334 337 341 334 330 337 344 344 341 342 345 348 346 340 336 338 339 336 337 344 348 344 342 342 343 343
309 309 308 308 308 308 308 310 311 313 314 314 313 313 312 314 313 312 315 320 324 327 329 326 322 322 324 325 326 326 325 324 326 328 332 336 333 324 320 318 316 321 329 337 343 345 340 335 332 330 330 329 324 319 320 325 326 323 325 333 338 340 344 343 337 337 339 340 341 342 340 338 340 343 342 338 336 335 335 338 345 346 341 341 345 344 343
309 308 308 307 308 307 308 309 311 312 314 314 314 314 313 314 314 313 315 319 325 330 330 325 322 324 325 324 325 325 321 320 324 325 325 328 329 324 321 321 318 315 321 332 343 344 338 332 331 331 328 324 321 321 324 325 323 322 325 330 334 340 343 339 336 342 343 337 334 337 339 338 339 344 346 340 334 333 338 343 346 345 341 341 344 343 344
308 308 307 307 307 307 308 308 309 311 313 314 314 314 314 314 315 313 314 318 324 329 327 321 320 324 323 319 321 322 319 317 318 319 321 325 324 320 319 320 319 320 327 336 342 339 331 326 332 338 334 326 324 325 323 321 323 327 328 327 330 335 336 334 335 337 340 340 337 335 335 335 337 340 341 336 333 337 344 344 342 343 343 341 341 343 344
308 307 307 307 307 307 308 308 309 310 312 313 314 314 314 315 315 314 315 317 320 323 322 319 320 322 320 318 321 322 320 320 320 319 321 324 322 319 319 321 323 324 325 325 325 326 327 329 331 332 333 334 331 325 321 321 325 330 330 328 332 333 330 333 335 334 335 339 338 335 332 330 332 334 335 335 337 343 347 343 339 340 341 339 342 344 342
307 307 307 307 307 307 308 309 308 309 311 312 314 314 314 314 315 315 315 315 317 321 323 320 319 320 320 319 320 319 318 320 319 318 320 321 321 321 322 325 327 324 324 328 326 324 331 339 333 326 329 333 325 321 328 330 324 323 326 329 331 330 328 333 337 336 339 342 341 338 336 332 331 332 337 342 342 340 344 346 343 341 339 339 342 343 341
307 307 307 307 307 307 308 309 308 308 310 312 313 314 314 314 314 315 315 314 314 318 321 319 317 317 317 318 319 319 319 319 318 318 319 319 322 325 324 324 327 327 330 338 335 327 330 336 333 330 333 332 324 323 328 327 324 324 323 322 324 326 329 336 337 336 338 342 340 337 333 330 330 330 333 340 340 337 340 347 347 343 340 341 342 341 339
307 306 306 306 307 308 308 309 308 308 309 311 312 314 314 314 314 315 315 314 314 316 317 315 316 318 319 318 318 318 319 319 319 320 318 317 321 325 323 322 326 330 335 340 340 337 338 336 333 336 337 332 333 334 325 320 329 336 327 322 326 327 329 335 337 333 333 334 333 333 332 331 331 330 329 331 334 334 335 340 344 343 341 341 341 339 337
306 306 307 306 307 308 308 309 309 309 309 310 311 313 314 314 314 315 314 314 315 318 319 318 318 322 323 321 318 318 320 320 320 321 320 317 319 325 327 325 325 329 334 335 334 339 343 335 328 331 332 330 335 339 330 324 333 337 330 328 330 330 333 338 338 334 334 336 334 334 333 331 331 333 333 332 332 332 329 331 337 340 339 337 337 337 337
306 306 306 306 307 307 308 309 310 310 309 308 311 313 313 314 315 315 315 315 316 317 321 322 321 320 320 319 318 319 319 318 318 319 320 319 317 321 325 324 322 324 328 330 331 338 344 339 331 332 333 328 327 331 331 327 328 330 330 332 334 331 334 339 338 335 335 335 333 331 330 330 330 334 338 337 336 334 330 327 330 335 336 335 334 334 336
307 307 306 306 307 307 307 308 310 311 309 309 310 312 313 314 314 314 314 315 315 315 318 321 321 318 317 318 319 318 317 317 317 317 318 319 318 318 319 318 318 321 326 331 338 344 346 341 338 340 336 326 324 335 338 329 322 324 329 333 335 331 328 331 337 337 332 330 330 330 332 332 331 332 334 333 333 335 332 327 327 330 332 333 333 333 334
307 306 306 306 306 306 307 308 309 310 310 310 310 312 313 313 314 314 314 314 316 318 320 320 320 318 317 317 317 316 316 316 317 317 317 317 317 317 317 317 319 324 332 338 340 342 342 334 331 338 339 329 327 336 337 330 327 331 330 328 330 333 331 331 336 339 337 336 335 334 335 336 335 334 332 329 330 332 330 327 328 330 330 330 331 332 331
306 306 306 307 307 307 307 307 309 310 310 311 311 312 313 313 313 313 314 314 316 318 319 318 318 318 318 318 317 316 317 316 315 316 316 315 316 317 316 317 319 326 337 344 343 340 336 329 327 331 334 331 330 329 327 326 329 335 336 333 335 341 338 334 338 345 344 339 335 333 335 336 334 331 331 330 331 332 330 328 329 331 329 328 329 331 331
306 306 306 307 308 309 307 307 308 310 310 312 312 311 312 314 313 314 314 314 314 315 316 318 319 320 321 320 318 316 316 317 317 317 315 315 317 317 316 320 327 331 334 338 339 336 332 331 335 334 329 329 330 327 327 328 330 335 342 340 338 341 337 331 336 341 336 331 331 332 333 332 329 329 333 334 332 330 330 329 328 328 328 328 329 329 329
306 306 306 306 308 308 308 307 308 310 310 311 311 312 315 317 315 314 314 313 313 315 316 320 322 322 320 321 321 319 317 318 319 319 317 316 318 317 318 325 334 335 333 332 331 332 332 334 337 335 329 330 331 325 327 333 338 346 351 342 336 338 335 328 331 334 329 328 330 330 330 330 328 326 328 328 326 326 327 327 326 326 326 326 327 327 327
306 306 306 306 306 307 307 307 308 310 311 311 312 314 319 320 317 314 313 313 314 315 316 319 321 320 319 320 321 320 319 319 319 319 318 318 319 318 319 324 329 329 331 330 327 327 329 331 334 332 330 334 341 338 334 336 339 345 348 344 341 343 338 331 333 333 329 328 329 328 327 327 325 326 327 325 324 325 326 326 326 326 325 325 325 326 326
306 306 306 306 306 307 308 309 309 310 311 312 313 314 317 317 315 314 314 315 314 315 318 321 322 321 321 322 320 318 319 320 321 322 322 322 323 322 322 325 330 331 331 330 327 326 328 333 336 332 326 331 343 346 342 341 344 344 343 343 343 340 335 334 335 331 326 326 328 328 328 326 326 327 328 325 323 324 325 325 325 325 324 324 323 324 324
306 305 305 306 307 307 308 310 310 311 312 312 313 313 314 315 315 314 315 315 315 315 318 321 322 321 322 323 321 319 320 322 325 328 325 322 324 329 330 330 334 334 329 326 325 327 331 334 335 330 326 331 338 340 340 344 347 343 337 336 337 334 331 332 332 328 325 327 328 329 329 328 326 325 324 323 323 323 322 322 323 323 324 324 324 324 323
306 305 305 306 307 308 309 310 311 312 312 312 313 315 315 316 316 315 315 315 314 316 318 320 322 322 321 322 322 322 323 326 329 330 325 320 322 329 332 333 336 335 329 325 325 326 330 334 332 327 328 330 327 326 332 338 338 334 332 331 330 329 329 329 327 326 328 331 333 330 325 322 322 322 323 324 323 321 321 322 323 324 326 326 325 324 322
306 307 307 307 307 308 310 311 311 312 312 312 313 315 316 316 316 316 316 316 315 318 320 319 320 321 321 321 325 326 325 328 330 327 324 324 325 327 332 336 337 333 328 327 328 328 328 330 329 328 329 328 323 324 333 337 335 332 333 333 329 327 329 329 327 327 329 331 331 327 321 320 323 324 325 325 324 322 322 322 322 324 326 326 324 322 320
307 307 308 308 309 310 311 311 312 312 312 313 315 316 316 316 316 315 316 317 317 319 322 320 320 322 320 318 321 322 321 326 330 327 327 331 329 328 332 336 332 327 326 328 330 330 328 326 327 329 328 326 328 335 341 341 341 339 336 332 329 329 330 330 329 328 328 327 325 323 321 322 324 323 323 324 323 322 324 324 323 325 326 326 324 322 319
307 307 309 310 311 311 312 312 312 314 315 316 316 315 316 316 316 315 315 316 316 318 320 320 322 323 319 317 321 325 321 323 328 329 330 333 330 327 331 335 332 329 330 332 331 330 329 326 326 329 331 333 339 345 343 338 340 344 338 330 328 330 331 328 326 327 327 325 324 324 323 323 323 322 322 323 323 324 326 326 324 324 326 325 323 321 319
307 308 309 311 313 315 316 315 314 316 318 317 316 317 317 318 319 319 317 318 318 319 318 319 322 323 318 317 322 325 321 321 328 330 327 327 327 326 328 332 333 332 332 332 329 327 328 328 327 328 336 343 343 343 341 335 332 334 333 329 329 330 328 324 324 327 328 326 325 324 324 323 324 322 322 322 324 324 324 322 320 320 321 321 319 318 317
307 309 311 313 314 317 318 317 316 318 318 316 316 319 318 318 321 322 319 318 320 320 317 318 322 324 321 319 322 323 321 322 329 331 326 323 326 328 328 328 329 329 328 329 329 327 328 332 332 330 337 345 343 340 341 337 330 328 328 327 327 327 325 324 326 329 329 327 325 324 323 323 324 323 322 323 323 322 319 317 317 319 319 318 318 317 317
309 311 313 315 315 316 317 317 316 318 318 317 317 318 318 318 321 322 319 319 321 320 319 320 322 321 319 318 320 323 324 323 326 331 329 324 325 329 329 326 327 328 328 330 332 330 330 335 334 330 334 347 350 345 340 335 331 330 329 327 325 323 321 322 323 323 324 324 322 319 319 319 318 320 321 322 324 325 321 317 317 318 318 318 318 318 317
311 312 314 315 315 315 316 316 316 317 317 317 318 320 320 320 320 319 319 320 322 321 320 321 321 321 319 317 318 322 325 323 324 330 332 327 324 328 330 327 326 329 331 332 333 331 329 331 332 331 335 345 349 343 335 332 331 330 329 328 325 320 318 320 321 319 320 324 322 318 317 316 315 316 317 317 319 321 320 317 317 318 318 318 318 317 316
310 311 312 312 313 313 315 317 318 318 317 318 320 321 321 320 320 319 319 321 322 322 320 320 322 325 323 319 318 322 324 323 325 330 332 329 326 328 330 328 325 327 331 333 332 329 327 328 330 332 337 343 344 338 333 331 331 330 330 329 324 320 319 325 326 321 318 320 320 317 315 315 315 316 317 316 316 317 317 317 318 317 317 317 316 315 315
310 311 311 312 313 314 316 317 317 317 318 319 321 321 320 320 320 320 320 321 321 322 321 318 318 319 319 319 320 321 320 321 326 330 331 328 326 326 328 328 327 326 328 330 330 329 330 331 331 332 337 341 341 336 332 329 329 329 327 324 321 319 319 322 323 320 317 317 317 316 316 316 316 316 317 318 318 317 317 317 317 316 315 315 314 313 314
312 312 313 315 316 316 317 318 317 317 318 319 319 320 321 321 320 321 323 325 323 321 321 320 316 316 319 322 324 324 322 322 325 328 327 325 326 327 328 329 329 327 327 328 329 329 330 332 332 334 339 343 339 333 329 328 328 329 328 324 320 318 318 318 320 320 319 317 316 316 316 316 316 317 318 318 319 317 316 315 315 315 314 314 313 313 314
314 315 316 318 319 317 317 318 318 318 319 319 319 320 322 324 324 325 327 328 324 321 323 324 322 321 324 325 324 325 327 326 326 326 326 325 326 327 327 327 327 325 325 328 331 329 329 332 334 336 341 345 342 334 330 329 328 328 328 327 324 322 322 323 323 322 319 317 316 316 317 316 316 317 317 317 317 317 316 314 314 314 314 313 312 312 313
315 315 316 319 320 317 315 317 319 320 320 321 321 321 323 325 327 328 327 326 324 324 327 328 324 323 325 324 321 323 327 328 325 325 325 326 326 326 324 324 325 325 325 329 333 332 331 335 338 338 339 342 338 332 328 328 327 326 327 328 327 325 323 322 321 320 318 317 317 316 316 316 315 315 315 314 314 315 314 313 313 314 313 312 311 311 311
315 314 314 318 319 316 315 317 319 320 320 322 323 323 322 322 323 324 325 325 325 325 327 327 323 321 321 321 321 323 326 328 326 323 323 325 326 324 322 324 329 330 328 330 333 336 337 340 342 342 340 337 332 329 327 327 326 326 326 326 325 324 322 321 320 318 317 316 316 315 315 315 314 313 313 312 312 312 312 312 312 313 313 312 311 310 310
314 313 315 319 319 317 317 318 318 318 319 320 321 321 320 319 320 322 324 324 324 325 326 327 325 323 320 321 323 324 325 326 326 324 323 325 326 325 325 328 330 330 329 330 334 339 342 344 343 343 339 332 328 328 329 327 326 326 326 325 324 323 323 322 320 318 316 316 315 314 314 313 313 312 312 311 310 310 310 311 312 312 312 311 310 309 309
312 313 315 317 316 316 317 317 317 318 321 321 320 321 321 321 322 324 324 323 325 327 326 324 325 324 322 322 324 324 323 324 324 322 322 325 327 327 328 329 329 329 332 333 335 340 344 343 340 338 335 330 327 327 327 325 325 325 325 323 322 320 319 318 318 316 316 315 314 313 313 312 312 311 310 310 309 308 310 311 312 312 311 310 309 308 308
311 313 316 317 316 317 319 318 318 321 325 324 323 322 321 321 323 324 323 324 328 328 324 322 323 324 322 323 325 325 324 325 324 322 324 328 327 325 327 330 332 335 339 338 337 340 341 338 336 337 334 329 326 326 325 324 325 324 321 320 319 318 317 316 316 315 314 314 313 313 312 312 311 310 310 309 309 309 309 310 311 310 309 309 308 307 307
312 313 315 316 317 319 320 319 319 321 322 322 321 320 319 320 322 323 322 323 326 326 324 324 325 324 323 324 325 322 322 325 326 325 328 331 328 326 330 335 336 338 342 342 340 339 336 331 332 336 335 328 325 326 325 323 322 321 319 317 317 317 316 316 315 314 313 313 312 312 311 310 310 310 310 309 309 308 308 308 309 309 308 308 307 307 307
314 315 316 315 315 316 317 316 317 318 318 318 318 318 319 320 322 321 320 321 324 324 324 325 326 325 324 325 325 322 321 325 327 326 327 330 329 329 335 340 339 339 340 340 339 340 336 329 326 330 331 327 325 325 324 322 321 319 317 317 317 317 316 315 314 313 312 312 311 311 310 309 309 309 309 308 308 308 306 306 307 308 307 307 307 306 306
Wind_Speed
26 26 25 26 24 21 22 22 21 25 28 24 21 13 3 2 2 4 1 10 9 5 2 2 1 2 3 3 3 2 1 2 3 3 2 1 1 1 1 2 2 2 2 2 2 3 2 1 1 1 1 2 4 5 5 3 1 4 2 1 0 2 3 3 1 4 5 7 7 4 3 4 3 2 3 2 2 2 3 4 2 1 1 1 1 2 4
25 24 25 25 22 20 21 21 20 22 25 24 18 6 2 0 4 3 1 8 6 3 2 3 1 3 3 3 3 3 2 2 2 3 2 2 1 1 2 2 2 2 1 2 2 2 2 1 0 1 1 1 3 4 6 2 2 2 1 2 1 1 1 3 3 3 5 6 6 5 4 4 2 3 4 3 4 5 2 2 1 1 3 3 3 3 4
23 22 24 24 20 19 19 19 19 20 22 21 13 2 0 1 2 3 3 2 4 1 3 4 3 3 1 2 4 4 2 3 4 6 5 4 4 2 2 1 3 2 2 4 2 1 2 1 0 1 1 2 2 3 5 3 1 1 2 3 3 2 2 3 4 3 2 1 2 2 3 3 2 3 6 6 8 8 2 2 2 1 3 3 4 3 3
22 21 22 23 20 18 17 18 19 20 21 19 9 1 0 2 1 2 5 3 3 1 1 3 3 2 2 1 3 1 2 4 4 5 4 3 4 2 1 1 4 3 3 4 3 2 1 2 2 1 1 3 3 3 4 3 2 3 3 5 4 4 2 2 5 6 6 6 5 5 2 1 2 5 7 7 8 8 3 2 2 1 2 1 3 3 1
20 19 21 22 22 19 15 16 18 19 20 15 5 1 1 2 1 1 2 3 3 2 3 4 3 1 2 1 2 1 3 5 3 2 2 1 1 2 1 1 2 2 3 4 1 1 3 3 2 2 2 3 3 4 2 2 5 5 3 3 3 5 2 1 4 3 4 5 4 4 3 4 1 3 6 7 7 9 8 4 2 2 1 3 5 2 2
19 18 19 21 23 21 16 15 17 18 18 12 3 1 1 1 0 0 1 1 0 0 3 3 2 2 2 2 1 1 2 3 3 3 4 4 1 2 1 2 3 6 6 5 2 1 2 3 1 2 2 2 3 4 2 2 5 5 3 2 3 6 1 2 3 2 3 1 2 4 2 5 3 2 4 6 6 9 9 6 3 1 2 3 4 2 2
19 17 17 19 22 22 15 14 17 17 15 10 4 2 2 1 1 1 1 0 3 3 3 3 2 3 3 1 0 1 1 2 2 2 3 5 2 3 2 5 4 6 6 6 4 3 3 1 3 2 2 1 2 2 1 2 4 4 3 2 3 4 2 3 4 1 3 2 3 3 1 4 3 2 3 4 3 6 7 6 6 3 3 2 1 4 4
18 16 17 17 20 20 15 13 17 17 13 8 3 3 2 1 0 2 2 2 2 2 2 1 1 3 1 1 1 1 1 1 3 2 2 3 4 2 5 7 4 5 5 6 5 8 8 6 5 5 3 1 1 1 2 2 4 5 2 2 2 3 1 1 4 3 2 3 2 2 1 3 2 2 3 4 3 4 5 5 5 4 3 4 4 4 4
18 15 16 17 18 19 14 12 16 17 13 6 3 4 4 2 2 0 2 1 3 2 2 2 2 2 2 1 1 2 2 2 2 3 5 7 5 4 7 7 4 4 4 5 6 9 9 8 8 9 7 5 4 2 2 4 1 4 1 1 3 3 2 1 4 3 3 3 4 4 1 4 3 3 4 4 3 2 2 3 3 4 3 1 1 1 1
18 14 15 16 17 18 13 11 16 18 14 8 4 3 6 4 1 1 3 0 2 1 2 2 1 2 2 1 1 2 4 4 1 3 4 4 5 6 7 8 5 3 4 7 8 9 10 8 7 7 5 3 4 2 3 6 4 1 2 1 2 2 4 2 3 2 3 4 4 3 2 4 3 4 2 1 0 0 2 1 4 4 4 2 1 1 2
17 13 14 14 15 16 12 10 15 16 14 11 6 3 6 5 2 2 3 0 3 1 1 1 0 1 2 3 2 2 5 5 0 1 3 4 3 4 3 7 6 3 6 9 5 6 8 5 4 5 5 5 4 3 4 4 2 2 4 2 1 3 4 2 2 3 3 5 4 3 3 1 4 5 2 3 3 2 1 1 3 4 3 1 0 2 2
16 12 13 13 13 14 11 10 13 12 10 11 7 2 5 6 2 1 4 1 3 2 1 2 2 1 4 4 3 3 5 7 5 4 5 6 5 3 1 5 6 3 6 4 6 7 6 4 5 4 6 6 4 3 5 4 3 2 3 5 3 3 4 2 2 3 1 3 5 3 2 4 5 5 4 2 5 5 3 0 1 3 2 2 2 2 3
14 12 12 12 11 10 8 9 11 10 9 11 9 4 5 5 2 1 3 2 2 2 1 4 3 2 4 5 3 4 6 8 8 6 6 7 5 3 3 5 6 6 5 8 10 8 5 4 4 3 4 7 7 4 4 4 5 5 3 4 5 5 4 2 2 1 0 2 3 2 5 6 4 5 4 1 3 4 3 2 4 3 4 4 2 1 3
13 11 12 12 10 7 6 7 9 9 8 10 10 6 6 4 0 0 2 2 2 3 2 3 4 3 4 5 3 4 6 6 7 6 5 4 5 7 6 5 4 4 7 9 7 6 4 2 3 2 3 6 5 3 3 3 4 4 4 3 4 6 4 2 2 0 1 2 1 2 3 4 3 3 3 2 2 3 4 1 5 4 5 5 4 4 4
12 11 11 11 11 8 5 4 7 8 8 10 10 8 7 5 4 2 0 2 1 2 1 3 3 2 4 4 2 3 5 5 4 5 4 2 4 6 5 2 2 4 7 7 4 4 3 2 3 1 2 2 0 3 3 2 2 3 3 3 4 5 3 4 3 1 2 4 1 2 3 2 4 5 3 1 3 5 6 3 4 5 5 6 6 7 5
12 11 11 11 11 10 6 3 4 7 7 10 11 8 4 1 3 3 1 2 2 2 3 5 3 1 2 4 3 2 2 3 3 4 5 5 3 3 1 1 2 4 6 6 4 4 4 3 3 3 2 3 3 2 2 1 2 4 4 5 7 6 3 4 4 1 2 4 2 2 2 3 6 6 5 2 3 5 6 4 4 5 6 7 6 7 7
11 10 11 11 10 10 7 3 3 5 6 8 11 9 3 1 1 3 1 2 2 2 4 4 2 1 1 2 3 1 2 2 3 2 3 4 4 4 4 4 3 4 6 5 3 4 4 3 2 2 2 3 3 2 1 1 1 4 5 6 7 5 4 3 3 2 3 4 2 2 3 3 4 5 5 3 3 6 7 2 5 5 5 6 6 6 6
11 10 11 11 10 10 8 4 4 3 6 8 10 8 3 1 1 3 2 2 1 3 4 3 3 3 3 3 2 2 1 2 2 1 3 3 2 3 5 4 3 3 4 4 3 3 4 2 2 3 2 3 1 2 2 1 1 2 1 2 3 3 3 2 3 3 3 4 2 2 4 4 5 5 5 4 3 5 4 3 6 4 5 4 4 5 4
11 9 11 10 10 10 9 6 5 4 3 6 8 6 3 2 2 3 2 1 2 3 4 2 2 3 2 1 1 1 1 1 1 1 2 2 2 4 4 3 1 2 3 4 3 3 3 2 2 3 2 2 1 2 3 2 3 2 2 2 1 1 1 1 2 3 2 3 2 1 4 4 4 3 3 3 3 2 3 5 3 3 6 4 3 4 4
11 9 10 10 9 9 8 8 7 6 3 4 8 6 2 1 2 2 1 1 1 3 6 7 6 6 5 3 3 3 3 1 1 1 1 2 4 5 1 2 1 2 2 3 2 2 3 3 3 1 3 3 2 2 1 2 3 3 4 3 3 3 2 1 2 3 2 2 2 1 2 3 2 3 1 2 3 4 4 1 2 2 5 4 3 3 4
11 9 10 9 9 8 8 8 8 7 7 3 6 5 1 3 2 3 4 2 2 2 4 5 6 8 9 8 9 8 6 4 4 3 2 4 3 2 2 3 2 0 1 3 3 2 2 3 2 1 2 1 1 2 2 1 2 3 3 3 2 3 3 2 3 3 3 3 1 3 4 4 2 2 3 3 4 4 4 3 1 1 4 4 3 2 3
10 8 9 9 8 8 7 9 10 7 9 5 5 4 4 5 5 6 6 4 6 7 9 12 15 19 23 24 22 20 18 17 15 11 6 3 3 2 3 4 3 3 2 3 4 1 1 3 2 2 2 2 1 2 2 2 2 4 1 2 2 4 4 4 3 3 3 5 5 4 3 3 3 3 3 3 4 3 1 4 3 3 3 4 4 3 3
9 8 9 9 7 7 6 8 9 6 9 7 4 4 5 6 7 7 7 6 7 9 15 20 20 22 23 23 21 18 18 20 22 21 14 6 2 3 4 4 3 3 2 2 4 4 3 3 3 2 2 3 3 3 2 1 2 3 2 1 2 3 3 3 2 1 1 2 3 1 1 3 3 2 2 1 4 5 4 2 1 4 4 4 5 5 5
8 8 9 9 7 5 5 6 7 6 8 9 6 5 6 7 8 7 5 3 1 3 8 8 6 8 10 11 12 12 12 13 17 20 19 15 6 2 3 4 2 1 3 3 2 4 3 2 2 2 2 2 3 4 2 2 3 3 3 0 2 2 3 3 3 2 1 1 2 2 2 4 4 1 1 4 7 7 8 7 3 2 6 6 6 7 7
8 8 9 10 8 6 5 6 6 7 7 9 8 6 6 7 7 5 3 1 1 1 3 3 4 9 10 11 13 13 11 10 11 13 18 22 17 8 5 4 1 2 4 4 1 4 3 2 2 2 2 2 2 2 3 3 2 3 3 2 2 2 3 3 2 3 2 3 4 2 2 4 4 1 3 4 6 7 9 9 7 4 5 5 7 9 7
8 8 9 9 9 7 6 6 6 6 5 7 8 8 7 8 9 7 4 2 1 1 2 3 6 9 11 14 16 15 11 10 11 12 16 22 25 22 15 8 7 6 3 0 3 4 3 3 3 3 2 3 3 3 3 3 2 2 2 4 3 3 3 2 3 3 1 3 3 2 1 2 5 3 5 5 5 7 9 9 8 8 8 5 3 7 8
8 8 8 7 7 6 6 6 6 6 5 6 8 9 9 10 12 11 8 4 2 1 3 2 4 10 14 15 18 17 13 11 12 12 16 20 24 26 19 9 5 6 3 3 2 3 3 3 1 1 2 2 2 2 2 2 3 3 1 3 2 4 3 2 4 4 1 4 5 4 3 2 1 1 4 5 6 10 8 5 4 6 9 9 8 5 5
8 8 7 6 6 7 6 6 6 7 7 6 7 10 12 14 15 15 14 11 6 2 2 2 4 10 12 12 16 17 14 12 11 11 14 16 19 21 17 8 4 4 1 3 2 3 4 2 1 0 1 1 2 1 0 1 3 1 2 4 4 5 6 6 6 4 5 6 7 6 5 4 3 4 4 5 6 8 6 4 2 5 6 4 6 7 4
8 7 6 6 7 7 6 7 7 8 8 6 7 9 10 11 12 14 15 15 11 4 1 3 4 6 7 10 16 17 14 11 9 6 8 10 12 14 11 5 3 3 2 4 3 2 2 1 1 1 2 1 3 2 1 2 2 2 5 6 4 4 6 8 8 4 2 4 7 6 4 5 6 6 6 7 7 7 6 5 3 3 5 8 7 4 3
7 7 7 7 7 8 7 7 8 7 6 6 6 6 4 3 5 7 10 13 11 6 0 1 2 3 5 8 10 11 12 13 10 5 2 4 9 10 8 5 3 2 3 3 3 2 1 1 2 2 3 1 3 2 2 3 2 4 5 5 4 3 3 5 5 3 2 4 6 5 4 6 7 4 4 6 9 10 7 5 6 6 7 12 10 2 1
7 7 7 8 8 8 7 7 8 7 6 6 4 1 1 1 1 2 8 12 11 5 1 1 2 4 5 4 4 6 11 11 7 4 4 1 3 4 5 5 3 3 3 2 2 2 2 2 2 2 2 1 3 3 3 4 2 4 5 5 5 4 4 4 3 3 4 6 7 5 5 7 7 5 4 3 7 11 10 7 9 13 13 14 13 9 8
7 7 8 8 8 8 6 6 7 7 7 7 7 6 4 1 5 11 12 10 8 5 1 1 2 2 3 4 4 6 8 6 3 3 4 3 3 4 5 4 3 3 2 2 1 0 2 2 1 2 1 2 3 2 3 4 3 5 6 5 3 3 5 6 5 5 7 9 10 8 5 3 3 3 5 5 7 11 13 11 13 18 19 17 16 16 16
7 8 8 8 8 7 6 5 6 7 7 8 11 13 11 7 9 12 8 3 3 4 2 1 1 2 3 3 4 6 5 4 3 3 4 3 2 3 3 3 3 3 4 2 1 1 1 1 0 2 2 1 3 3 2 2 4 5 4 2 1 3 5 6 6 8 8 7 7 7 8 7 4 3 8 8 8 12 16 15 15 17 17 15 13 13 15
6 7 7 7 8 7 6 5 5 6 7 8 10 11 8 7 12 16 15 10 4 2 2 0 1 2 3 2 3 5 4 3 1 2 3 3 3 2 2 2 3 3 2 2 1 1 2 0 1 2 2 1 1 2 2 4 5 4 1 2 3 5 6 6 6 7 7 4 4 5 8 9 8 9 9 8 8 11 14 15 15 13 11 9 7 8 12
6 6 5 6 7 7 6 5 5 5 5 7 8 6 3 5 12 16 20 16 5 1 1 1 1 2 3 3 3 4 4 3 1 1 1 1 3 2 2 2 3 2 1 1 1 1 2 1 1 2 2 1 0 2 4 5 5 4 3 4 5 6 7 6 6 5 4 5 7 7 9 11 11 10 8 7 7 8 9 10 11 12 10 7 6 9 11
5 5 5 6 6 6 5 4 5 5 3 3 2 3 5 1 6 12 17 15 6 1 1 0 0 2 1 0 3 4 4 3 1 2 1 1 3 2 2 3 3 1 1 2 2 0 1 1 1 2 2 1 2 4 5 6 7 6 5 6 7 6 6 8 9 7 6 7 10 9 9 11 11 9 8 7 7 7 8 8 8 10 10 7 6 7 9
6 6 6 5 3 3 3 4 5 6 3 1 2 1 4 4 6 7 8 8 6 3 1 1 1 3 2 2 3 3 3 2 1 3 3 1 1 2 2 3 2 1 1 3 1 1 2 2 1 2 3 3 4 5 5 5 8 8 6 7 7 4 5 8 11 11 10 9 9 8 7 8 9 7 7 8 6 7 9 9 8 9 10 8 7 8 10
7 7 6 3 2 2 3 3 4 4 2 1 1 3 2 1 3 3 1 2 2 2 1 1 3 3 1 1 3 2 1 1 1 2 1 0 1 2 2 2 1 1 1 1 1 1 3 2 2 2 3 4 4 5 5 5 6 5 5 7 7 6 7 9 12 14 12 9 7 7 7 8 7 7 7 8 7 7 8 9 9 11 13 11 10 12 14
6 5 3 3 3 2 1 1 1 2 3 3 1 1 1 1 1 0 0 0 1 1 1 1 3 3 4 3 5 3 1 2 2 2 0 0 1 1 1 1 0 1 1 1 2 1 2 2 3 2 2 4 4 4 4 4 4 3 4 5 6 7 9 10 11 14 14 12 13 13 12 11 11 8 7 7 6 5 7 9 11 13 15 15 16 17 16
5 4 2 2 2 3 3 1 2 3 4 2 1 0 0 1 0 1 1 1 1 1 2 2 2 3 4 4 4 3 1 2 1 1 1 1 0 1 2 0 1 1 1 2 2 1 2 2 1 1 2 4 4 4 3 4 5 4 5 6 6 8 10 9 9 9 9 9 12 13 12 13 14 11 9 8 7 6 6 8 11 15 17 17 17 18 18
3 2 2 2 4 6 5 1 3 3 2 1 0 0 1 0 1 1 1 1 1 2 2 2 1 2 2 3 4 3 2 1 1 2 2 1 1 2 2 1 1 1 1 3 2 2 2 2 2 2 3 5 5 4 2 4 4 4 5 6 6 7 8 7 7 9 10 9 8 8 11 14 15 14 13 12 11 10 9 10 12 15 18 18 18 20 22
2 2 3 5 7 6 4 1 2 2 1 1 0 0 0 1 1 1 1 2 2 2 2 2 2 3 3 3 3 2 2 1 1 2 2 1 0 2 2 0 1 1 2 3 0 2 1 2 2 3 5 6 5 4 4 5 5 6 7 7 7 8 9 7 6 9 13 13 11 10 12 15 15 15 17 17 15 14 14 15 16 16 18 20 21 23 24
5 5 4 4 3 2 1 1 1 1 1 1 1 0 1 1 1 1 1 2 1 1 1 1 1 1 1 2 1 0 0 1 1 2 2 0 1 1 2 1 0 1 2 1 2 2 2 3 3 4 5 5 5 4 4 5 5 5 6 6 8 9 10 10 9 10 12 15 16 15 16 16 15 16 19 21 19 16 14 16 19 20 21 22 23 22 22
3 2 1 1 1 1 1 1 1 1 1 1 1 2 1 2 1 2 2 2 1 1 2 1 1 1 2 1 1 1 0 1 1 2 2 1 1 1 2 1 2 2 1 1 1 1 2 3 4 5 4 4 4 4 4 4 5 6 5 5 7 9 10 11 12 11 10 12 15 17 17 17 16 16 18 21 23 21 17 16 19 22 23 23 23 21 21
0 1 1 1 1 0 1 0 1 1 2 2 2 3 3 3 3 3 3 2 1 1 2 1 3 2 2 2 1 1 1 1 2 1 1 1 1 0 1 1 1 0 1 0 1 2 2 3 4 4 4 5 5 5 5 5 6 7 7 6 7 8 8 9 10 9 9 11 15 16 16 17 17 16 15 16 21 24 24 22 22 24 25 24 22 21 19
0 0 2 2 1 1 0 1 0 1 2 3 3 3 4 4 4 3 3 2 2 1 3 2 2 3 2 2 1 1 1 2 2 1 1 2 1 1 1 0 0 0 0 1 2 2 3 5 4 5 6 6 5 4 5 5 5 7 8 8 8 8 8 9 9 9 11 14 16 16 16 17 18 18 17 16 17 20 24 25 25 26 26 25 23 21 20
1 0 2 2 1 1 0 2 3 2 3 3 3 4 4 3 3 3 3 2 3 3 3 1 1 1 1 1 1 1 1 2 2 1 0 2 1 1 1 1 0 1 2 2 3 4 4 4 4 5 6 5 4 4 5 5 6 7 8 9 9 8 8 8 9 11 14 17 17 16 16 18 19 20 20 19 17 19 22 24 24 25 26 25 23 22 20
2 1 1 1 1 1 2 2 2 2 2 2 3 3 2 1 2 4 3 2 3 3 3 1 0 0 1 0 2 2 1 1 2 1 1 1 1 0 1 0 1 2 2 3 4 4 4 4 5 5 4 4 5 6 6 6 7 8 8 9 10 10 10 9 10 14 17 19 17 16 17 19 20 21 22 21 19 19 21 24 24 24 25 25 23 21 19
2 1 1 1 1 2 3 2 0 2 3 2 2 1 1 1 3 5 3 1 2 2 3 2 1 0 1 1 1 1 1 0 1 1 1 1 1 1 0 1 2 3 3 4 4 4 4 5 4 3 3 4 5 6 6 6 7 8 8 10 11 12 12 11 12 16 19 20 19 19 20 21 21 21 22 22 20 19 21 23 24 24 23 23 21 19 17
2 1 1 1 1 1 1 0 0 2 3 3 2 2 2 2 3 4 2 2 1 0 2 2 1 0 0 0 2 1 1 1 2 2 1 1 2 2 1 2 3 4 3 4 4 4 5 4 3 3 4 5 5 5 6 6 7 7 8 10 12 14 15 16 17 16 16 18 21 24 23 22 22 22 23 23 23 23 22 23 23 22 20 19 18 17 16
0 0 1 1 2 2 1 1 1 2 3 3 3 2 1 1 3 4 2 1 1 2 2 1 1 1 1 1 1 1 1 1 2 2 2 2 2 3 2 3 4 4 4 4 4 4 4 3 3 4 4 4 5 5 5 6 6 7 9 12 15 17 19 21 21 19 17 18 22 23 22 21 23 25 26 28 28 25 21 19 20 20 19 17 16 16 17
0 0 1 2 1 2 2 1 2 3 3 3 3 2 1 1 4 4 2 1 2 0 1 1 2 3 2 2 2 1 1 1 1 1 2 2 2 3 4 4 4 4 4 4 5 4 3 3 4 4 4 5 6 6 6 6 7 9 12 15 17 18 19 19 20 21 21 20 21 22 22 23 26 28 29 28 25 21 17 17 19 20 19 17 16 17 17
Wind_Direction
340 345 348 347 349 357 0 360 1 1 0 1 0 358 18 76 263 315 12 180 175 67 73 256 341 188 245 261 222 255 277 257 293 313 330 261 217 82 189 196 171 194 203 173 155 124 129 164 129 186 254 211 221 278 310 278 129 81 85 267 283 99 80 70 341 301 302 300 316 343 11 54 68 6 11 35 318 294 205 202 197 168 211 183 93 272 267
341 346 348 346 351 359 359 359 2 4 1 357 355 360 98 176 253 313 22 184 179 64 166 208 251 246 290 329 289 294 268 220 260 273 262 238 205 138 198 196 174 190 140 115 151 145 132 173 276 169 158 231 238 287 319 326 110 92 161 175 104 84 85 80 72 7 345 339 344 350 358 32 55 299 330 359 340 329 276 216 91 218 224 149 131 245 265
342 347 348 347 352 357 357 358 0 1 357 351 352 351 176 358 234 287 334 170 148 140 182 153 162 233 335 340 293 304 287 245 236 241 247 224 185 171 227 169 121 127 84 72 64 74 126 168 293 115 159 284 283 313 331 358 69 261 199 144 105 102 129 114 112 126 162 215 287 291 303 335 341 310 328 352 5 6 338 190 109 209 240 144 151 220 263
342 346 348 347 349 352 353 357 359 358 352 348 346 287 329 41 91 301 331 10 74 106 192 101 121 166 86 339 282 272 290 290 255 224 237 219 165 134 269 120 86 64 76 78 30 353 38 84 90 121 224 271 278 310 330 356 342 330 73 90 83 95 97 105 134 159 172 174 206 220 196 26 337 324 335 353 8 12 20 95 98 221 268 269 228 216 163
340 345 349 346 346 348 350 357 359 356 352 350 349 349 62 75 63 23 347 341 23 23 359 44 61 135 139 176 272 266 290 311 321 272 259 269 110 90 22 110 124 145 124 113 105 327 2 23 105 154 234 262 280 305 327 341 322 332 48 70 75 92 61 66 132 182 200 164 194 226 156 128 196 320 344 355 8 26 37 29 332 262 277 299 294 329 94
339 344 348 347 345 345 348 357 360 357 355 359 21 11 1 86 316 155 141 269 229 19 334 355 356 293 215 198 250 293 311 340 348 312 313 336 30 114 1 307 192 183 158 129 138 130 28 351 244 173 209 270 326 339 346 327 327 345 20 17 86 105 153 196 149 258 288 170 248 272 173 144 145 32 1 349 14 41 38 6 336 85 156 247 293 17 95
338 343 348 347 343 341 349 1 0 0 359 0 31 17 320 52 1 302 32 50 203 220 292 319 328 285 240 217 276 230 301 333 286 265 324 327 322 131 185 264 225 181 153 120 133 172 152 205 253 213 179 247 354 11 352 318 347 28 32 0 78 108 184 197 140 91 322 302 275 289 142 136 129 65 11 346 34 64 49 14 358 34 117 162 61 80 81
337 341 345 345 341 341 353 4 360 4 6 360 38 60 11 36 309 309 18 4 262 262 308 14 30 323 293 183 266 242 185 289 294 252 197 269 297 135 189 223 192 157 146 127 163 200 176 171 203 182 146 188 222 174 194 258 346 20 34 350 41 92 165 196 104 90 304 306 342 338 46 102 97 37 13 5 31 66 62 37 356 347 73 99 98 96 74
334 339 342 343 343 344 355 9 4 6 9 8 63 57 7 333 236 170 77 351 307 307 321 67 90 335 329 159 252 287 232 240 316 288 218 206 231 228 196 185 139 116 136 146 188 204 177 171 188 174 161 184 196 199 185 178 14 5 18 338 8 82 120 61 75 85 266 306 359 326 341 72 29 336 353 4 23 54 55 55 21 342 336 11 70 65 28
332 336 340 341 345 348 356 14 11 7 11 24 51 22 2 3 310 40 101 287 322 352 332 8 94 237 255 211 266 274 259 263 4 331 275 220 231 245 191 161 126 98 163 190 203 195 177 179 184 167 158 169 164 148 160 158 146 131 147 26 353 101 124 141 102 101 259 295 348 335 23 46 330 286 291 296 208 2 334 29 49 11 333 334 30 313 327
330 333 337 339 348 354 2 23 16 7 12 22 26 3 10 22 331 352 70 36 302 356 357 329 176 230 314 352 337 283 276 289 268 158 282 286 299 310 190 157 127 129 207 213 194 160 156 148 115 106 81 63 93 118 136 144 152 172 152 123 10 89 100 133 128 113 252 289 344 21 30 349 250 256 247 174 159 130 84 24 35 37 19 358 25 296 333
327 330 333 338 348 355 9 25 10 360 9 15 12 4 5 5 321 39 83 140 272 337 356 260 219 264 314 325 322 278 274 288 272 216 247 278 299 327 199 157 139 185 221 176 102 101 109 78 44 46 40 28 30 68 92 79 350 321 135 132 132 94 86 113 104 101 214 314 23 45 270 244 243 280 289 155 127 111 103 307 298 93 114 216 244 307 321
324 327 329 334 343 351 8 15 356 355 11 2 351 339 335 345 354 118 106 130 258 286 281 279 279 291 297 297 295 276 270 282 282 257 242 256 265 257 207 177 181 200 162 108 90 85 87 53 14 355 349 1 7 12 42 33 357 349 43 105 132 132 129 128 81 71 229 29 67 155 248 260 269 290 282 172 92 72 61 317 271 178 163 194 191 249 275
321 323 325 330 337 343 356 358 352 4 10 343 333 332 317 311 276 176 100 122 251 248 209 290 308 311 296 292 295 295 294 300 300 277 239 229 233 231 227 216 206 173 123 101 72 65 89 68 27 10 336 1 12 324 312 6 26 24 9 13 121 134 140 121 79 92 162 119 156 254 302 310 279 255 233 184 160 141 126 250 270 226 182 179 170 184 209
319 320 321 325 330 333 335 346 356 8 360 333 329 333 315 285 226 231 36 124 217 288 228 216 234 263 292 298 313 318 315 326 325 299 280 264 234 230 230 212 159 122 103 92 69 68 91 96 80 60 324 348 288 270 302 345 20 37 31 45 83 102 146 162 158 182 111 97 53 332 358 318 257 246 254 222 164 148 129 114 284 249 190 177 175 173 181
317 316 316 319 324 328 324 314 346 2 356 337 334 338 338 313 194 210 332 106 145 272 249 208 186 178 283 292 313 308 291 309 319 312 316 319 300 277 300 36 93 92 80 75 78 80 76 95 132 153 198 197 190 243 322 335 323 338 13 55 60 50 57 114 122 131 115 111 117 182 203 247 247 240 254 249 157 129 99 63 299 249 182 171 180 168 163
315 311 313 314 317 324 320 284 297 351 1 348 339 335 334 352 219 223 256 104 150 248 254 212 172 44 312 302 320 294 221 296 329 330 312 308 311 324 338 349 7 60 84 82 59 65 80 100 119 132 217 214 163 162 252 91 17 314 339 27 43 33 27 68 110 153 154 136 146 210 222 250 251 235 239 224 148 106 86 50 278 244 175 169 179 163 152
312 307 309 312 312 318 318 284 255 322 2 356 340 327 313 329 284 220 191 98 145 255 266 223 196 219 216 214 249 249 252 348 4 317 294 291 305 326 320 323 353 36 84 97 90 85 98 132 150 144 207 248 153 162 212 169 168 237 263 60 50 30 25 74 135 149 150 150 165 254 254 246 241 236 227 197 134 87 96 211 236 203 167 178 170 147 135
309 305 307 311 310 311 316 306 273 264 334 355 344 332 318 315 268 221 194 100 162 236 287 306 198 213 235 233 250 284 344 32 102 285 312 307 298 309 295 264 292 7 54 86 110 118 113 160 199 138 140 248 233 171 182 190 199 193 133 116 131 112 61 74 126 129 138 150 145 302 275 245 202 196 215 176 149 158 203 225 236 150 152 167 150 140 139
304 304 307 309 309 307 312 316 294 250 241 339 348 340 328 122 117 117 178 226 224 267 282 277 256 251 273 294 275 276 309 332 232 226 211 252 312 347 10 206 304 12 62 104 128 144 133 170 225 156 142 197 204 158 185 252 235 186 157 167 193 174 164 205 185 157 120 84 76 91 255 253 164 132 148 145 167 207 212 222 357 81 134 140 136 148 152
302 304 307 307 307 307 311 317 306 257 227 283 342 337 283 162 125 359 327 263 224 272 278 271 264 262 267 266 252 243 239 229 229 245 241 250 291 31 147 216 253 323 163 151 156 193 162 161 202 189 147 158 156 166 187 287 297 246 175 158 191 186 169 193 223 187 129 120 184 202 217 248 256 176 189 207 220 219 182 142 81 90 125 130 134 165 161
300 301 306 304 304 310 311 312 310 266 224 244 326 321 272 257 271 310 318 270 230 246 268 278 285 283 279 276 269 259 253 251 250 248 246 264 280 226 228 272 265 215 202 129 123 159 185 157 165 162 146 135 125 160 157 143 265 277 233 141 201 212 186 172 187 192 164 176 214 231 230 257 279 244 225 262 301 299 189 158 151 138 142 142 136 148 152
298 298 304 303 299 306 311 312 315 278 222 228 286 296 275 283 294 312 311 275 249 259 266 271 281 284 280 277 275 271 265 259 252 243 229 220 270 265 239 253 256 228 215 148 145 158 165 162 160 146 156 171 142 106 90 178 241 246 184 159 236 221 176 137 138 195 214 201 219 269 335 313 303 263 227 12 18 5 349 328 159 136 134 137 134 137 136
294 297 307 306 293 294 305 307 314 298 244 231 251 281 284 286 297 313 311 271 274 299 276 268 270 266 267 285 301 298 279 258 252 248 231 210 206 304 263 222 226 315 292 256 179 128 122 135 132 119 148 189 157 127 138 232 240 194 162 165 302 221 153 103 86 94 99 232 292 2 334 283 290 298 75 46 42 33 10 340 309 127 122 134 138 130 126
293 297 306 303 290 283 284 286 301 308 270 232 235 270 282 272 283 307 320 288 332 329 307 305 267 258 279 307 305 292 281 267 257 250 230 212 205 218 247 249 303 320 272 258 63 78 92 106 109 129 162 183 176 162 170 204 219 177 163 204 251 183 133 103 92 96 124 237 275 307 262 267 300 28 82 57 44 42 25 351 332 18 81 126 133 125 132
294 297 298 297 291 280 268 269 289 310 284 239 243 267 273 267 275 283 283 279 171 195 262 291 279 288 316 322 303 291 292 281 259 242 231 225 221 225 239 269 309 309 284 267 75 87 106 105 104 131 166 171 168 175 180 183 173 132 167 221 217 146 126 140 123 89 58 256 252 247 242 323 350 27 78 79 72 61 36 354 339 17 27 13 80 120 142
290 296 299 300 300 291 273 265 275 289 279 252 251 261 265 265 267 264 255 237 183 227 271 255 276 305 316 311 302 303 306 293 274 251 237 234 229 228 233 250 283 289 314 37 54 75 77 60 57 147 179 172 144 146 172 170 140 119 167 236 207 133 138 149 110 102 222 230 206 188 158 115 301 288 94 89 83 77 60 335 321 45 40 8 1 29 94
286 296 299 295 301 303 283 261 264 285 292 279 265 270 271 266 261 258 256 249 227 222 273 251 281 306 309 301 303 311 314 306 295 269 251 245 230 220 219 219 231 254 320 61 65 61 57 29 319 254 198 169 129 120 166 126 112 118 230 225 188 160 173 175 154 168 222 213 186 173 141 131 209 209 138 111 92 92 116 210 208 104 102 73 12 351 28
285 294 287 278 294 305 283 258 263 287 303 308 301 293 281 267 257 253 251 245 231 218 313 306 288 297 305 304 306 311 317 321 315 289 265 247 213 195 190 176 178 201 128 91 89 76 52 307 228 214 250 213 151 162 217 134 141 233 237 214 195 186 187 175 156 154 227 193 172 174 155 140 172 187 159 133 122 130 164 180 146 130 132 109 81 353 339
286 291 279 268 282 298 288 263 263 284 303 308 306 303 294 280 271 249 224 209 202 195 117 354 283 290 305 304 299 303 318 331 341 352 323 210 183 168 154 141 126 85 74 83 92 107 147 267 245 240 268 264 138 162 191 153 175 260 256 220 207 214 199 172 141 126 177 169 154 163 154 133 138 150 134 129 142 150 155 152 145 147 129 112 111 134 227
281 286 280 269 274 293 291 262 261 282 295 287 278 261 65 355 323 169 162 168 179 192 253 258 265 306 312 289 269 291 312 324 341 9 15 52 151 132 115 111 82 47 68 101 100 129 172 212 249 255 275 50 102 141 157 137 170 276 265 222 209 199 176 162 134 126 142 127 103 86 90 108 117 117 109 146 164 147 132 132 140 133 122 116 120 124 108
278 282 279 269 270 287 287 261 263 279 277 260 245 234 251 277 130 129 127 142 175 202 264 279 280 326 317 284 283 302 314 323 348 16 12 15 38 48 51 61 68 58 72 102 100 147 193 190 240 266 261 84 91 105 110 120 165 238 241 222 214 187 159 147 120 113 129 128 113 97 95 125 169 155 138 159 158 129 117 117 118 113 108 102 98 95 91
278 281 277 266 267 279 279 266 273 281 278 270 260 255 257 241 183 167 158 160 223 232 238 265 301 294 281 283 305 321 334 344 355 18 25 13 15 47 40 34 56 45 24 42 129 221 255 125 92 290 294 39 88 103 127 175 214 237 248 232 177 153 148 141 130 134 145 145 133 137 154 173 183 123 116 125 124 115 114 116 111 103 100 98 92 89 91
288 294 282 266 265 273 273 273 280 284 285 280 272 270 267 229 205 207 218 232 256 278 257 207 63 286 295 327 327 328 2 41 29 20 30 0 359 71 82 11 31 44 8 5 81 326 323 36 175 252 281 331 76 138 208 243 243 236 172 87 104 114 111 111 126 143 149 129 88 110 134 131 114 103 107 111 110 112 116 117 114 106 98 96 99 100 98
296 303 285 266 265 272 278 281 276 277 281 270 271 299 319 216 210 212 215 217 214 44 252 228 158 265 309 351 314 309 358 49 31 343 19 350 3 56 109 43 31 38 320 15 54 19 344 324 263 246 250 277 236 211 224 228 216 191 140 124 130 126 121 130 146 147 130 106 101 107 118 119 118 121 127 127 125 124 119 115 116 115 109 106 109 105 102
273 278 279 273 263 258 267 269 248 243 251 237 232 23 31 112 189 194 201 209 217 235 226 295 92 200 205 268 274 304 0 35 352 329 355 12 7 20 69 73 55 321 325 46 57 354 345 338 298 284 272 240 209 222 222 191 175 180 184 176 170 155 140 148 149 132 101 102 115 123 128 128 128 131 135 136 136 131 121 115 116 116 115 120 120 108 104
256 272 285 278 248 229 237 236 229 231 234 187 179 333 13 60 104 138 177 202 228 241 182 84 264 229 189 205 254 300 3 7 337 3 11 38 44 4 23 68 109 246 12 53 58 316 27 18 304 253 243 231 222 238 238 189 175 184 189 185 180 149 114 128 130 117 101 97 108 116 120 122 127 133 136 139 146 142 134 132 135 132 131 134 134 123 119
259 277 280 256 221 213 206 207 218 220 199 154 192 242 259 95 96 101 139 184 223 236 131 124 243 241 151 191 263 302 13 11 31 39 21 11 48 16 12 61 135 172 46 29 239 91 54 356 292 248 247 261 262 255 243 214 201 198 175 168 169 147 132 136 132 122 117 116 124 132 131 131 142 156 151 147 154 156 145 141 141 138 135 135 134 128 122
265 275 261 221 222 239 189 182 209 174 151 149 175 211 218 43 60 49 316 158 203 232 139 182 229 214 176 207 264 289 63 77 42 40 57 10 44 57 51 19 309 86 85 266 262 109 110 255 271 276 284 290 284 262 231 200 196 191 150 148 154 148 147 153 152 148 151 162 168 166 160 155 159 168 162 146 138 130 130 134 135 135 134 135 133 128 123
247 241 217 195 232 277 302 282 195 151 129 127 264 268 66 39 127 172 195 232 236 224 198 194 218 215 185 192 239 268 249 100 94 162 153 126 149 138 115 117 269 102 114 243 250 140 140 212 249 269 266 263 260 255 225 180 178 171 145 143 158 162 162 165 162 151 146 150 157 159 157 153 153 156 157 150 141 133 132 136 137 138 138 136 133 130 128
231 210 212 272 289 298 311 329 143 139 113 75 316 42 71 212 233 197 156 179 238 249 227 163 159 264 231 180 188 229 252 125 148 150 114 68 13 75 96 152 262 82 159 240 237 111 116 179 211 228 239 242 251 254 206 166 169 162 146 146 160 164 159 150 136 128 124 123 131 140 144 145 147 149 151 149 142 139 139 137 138 140 140 137 135 134 133
286 283 289 297 301 307 323 51 102 93 48 50 25 310 296 233 241 236 183 198 222 243 233 175 178 219 219 174 165 199 219 163 117 90 83 63 307 95 100 82 22 84 221 243 231 81 135 209 219 237 242 242 246 237 190 174 175 168 159 157 161 162 159 148 131 133 139 139 137 136 141 144 145 145 145 141 134 134 139 140 139 139 137 136 136 136 135
279 283 288 294 305 338 31 44 52 65 66 64 67 346 306 305 286 244 249 257 242 221 240 248 223 219 201 156 139 231 267 120 84 78 87 158 281 75 79 60 66 194 241 280 62 102 198 213 213 231 245 248 242 223 202 186 170 156 151 152 157 161 159 145 129 127 134 138 140 142 143 143 140 140 142 138 130 126 130 137 139 138 136 134 134 134 135
262 246 257 290 308 43 63 22 296 173 154 178 167 167 210 262 247 195 219 256 252 232 238 215 135 152 245 215 139 109 99 101 77 73 83 68 16 65 95 193 230 221 253 358 43 200 228 232 230 238 255 269 253 221 197 174 154 143 135 132 137 142 141 133 125 120 120 128 135 138 137 134 131 133 138 139 136 133 130 131 136 137 136 133 131 130 133
187 168 86 46 327 339 82 82 296 239 198 202 190 175 188 210 203 195 213 217 168 212 270 232 125 133 250 254 154 143 188 114 84 74 99 80 28 22 178 217 246 246 85 245 253 251 255 256 251 243 241 244 236 208 182 173 165 151 139 133 137 141 142 139 134 128 128 134 137 136 134 132 130 129 131 138 143 144 142 140 140 139 135 131 128 128 133
263 152 103 121 198 261 140 150 211 244 213 208 200 188 192 200 204 212 228 211 140 167 260 260 124 132 237 255 164 155 184 106 96 110 124 112 123 235 203 145 7 22 132 244 250 243 239 243 244 234 228 228 220 190 170 168 163 151 146 149 156 157 152 147 140 134 137 141 140 137 135 134 132 130 128 129 136 141 142 143 144 142 137 132 129 131 135
255 239 97 122 179 288 211 198 209 216 212 208 205 202 203 214 231 239 242 226 190 191 217 239 139 159 227 229 153 202 227 99 104 144 124 107 137 250 41 64 166 207 196 218 235 239 240 244 244 239 233 219 186 166 163 161 163 165 161 156 154 152 148 144 138 135 138 140 137 135 135 135 134 132 129 126 127 134 138 139 141 141 138 133 132 133 135
239 190 118 158 187 193 213 224 241 255 242 233 232 232 224 235 270 267 258 234 201 185 177 155 74 320 275 158 150 184 215 78 102 165 166 98 100 26 38 66 238 230 201 204 220 230 236 238 239 237 226 192 166 166 168 166 169 169 161 152 151 152 150 149 146 145 144 142 137 135 136 136 135 134 130 126 126 131 136 138 139 139 137 135 134 134 135
248 167 127 168 187 206 224 226 252 286 276 275 290 298 291 237 260 265 261 228 200 190 169 144 110 124 266 278 113 135 218 287 110 121 70 78 127 207 170 183 230 247 238 222 221 229 236 236 229 214 192 177 172 175 174 170 168 166 161 159 160 156 150 145 143 144 144 142 139 138 138 137 135 134 132 130 130 134 138 139 139 139 139 139 139 139 139
234 175 171 194 201 220 252 30 53 285 298 329 349 331 322 310 288 278 253 193 198 66 84 92 88 99 238 352 62 85 233 224 138 117 125 194 189 181 182 205 220 230 236 229 225 232 240 235 207 186 188 184 176 173 172 167 164 161 157 153 148 142 135 131 132 137 142 143 141 140 140 139 139 139 138 137 136 136 137 139 140 141 142 144 144 144 146
304 36 249 246 232 211 182 122 187 239 278 310 303 287 313 322 284 275 256 146 57 40 61 155 164 75 72 77 99 138 202 173 122 138 192 216 179 157 184 225 227 223 228 240 246 248 250 232 191 180 187 185 176 171 165 155 149 144 140 137 136 135 135 136 138 139 140 140 139 138 137 139 141 140 138 137 135 132 131 136 143 145 145 147 151 151 151
158 217 242 261 248 196 181 197 228 230 244 263 259 230 163 208 258 264 265 91 88 103 214 188 103 82 105 196 202 165 115 83 102 154 211 228 192 174 190 214 223 216 222 246 264 269 258 231 207 195 190 183 173 160 146 139 140 141 141 141 142 141 140 141 141 139 136 135 136 135 133 134 137 137 136 135 135 134 135 142 149 150 150 151 154 153 148